When you browse on this site, cookies collect data to enhance your experience and personalize the content and advertising you see.
Visit our Privacy Policy to learn more. By continuing to use the site, you agree to this use of cookies and data.
  • In Lithuania
  • List of Countries
  • For 7 days
  • Water Temperature
  • Weather Map
  • Weather Widgets
  • user-avatar
    Login

    Hourly Weather Haleb

    Today, 30 May, Saturday

    Time Temperature Precipitation Wind Pressure Humidity
    00:00 +15°C° 0 mm 5 mps 724 mmHg 80%
    01:00 +15°C° 0 mm 5 mps 724 mmHg 81%
    02:00 +15°C° 0 mm 4 mps 724 mmHg 83%
    03:00 +14°C° 0 mm 4 mps 724 mmHg 83%
    04:00 +14°C° 0 mm 4 mps 724 mmHg 84%
    05:00 +14°C° 0 mm 4 mps 724 mmHg 85%
    06:00 +17°C° 0 mm 4 mps 724 mmHg 73%
    07:00 +19°C° 0 mm 4 mps 725 mmHg 61%
    08:00 +20°C° 0 mm 5 mps 725 mmHg 49%
    09:00 +22°C° 0 mm 5 mps 725 mmHg 43%
    10:00 +23°C° 0 mm 5 mps 725 mmHg 37%
    11:00 +26°C° 0 mm 5 mps 725 mmHg 30%
    12:00 +26°C° 0 mm 6 mps 725 mmHg 29%
    13:00 +27°C° 0 mm 6 mps 725 mmHg 27%
    14:00 +28°C° 0 mm 7 mps 724 mmHg 26%
    15:00 +27°C° 0 mm 7 mps 724 mmHg 29%
    16:00 +26°C° 0 mm 7 mps 724 mmHg 32%
    17:00 +24°C° 0 mm 7 mps 724 mmHg 34%
    18:00 +22°C° 0 mm 7 mps 724 mmHg 42%
    19:00 +21°C° 0 mm 6 mps 724 mmHg 50%
    20:00 +19°C° 0 mm 6 mps 724 mmHg 58%
    21:00 +17°C° 0 mm 5 mps 724 mmHg 62%
    22:00 +17°C° 0 mm 5 mps 725 mmHg 66%
    23:00 +17°C° 0 mm 4 mps 725 mmHg 70%

    Tomorrow, 31 May, Sunday

    Time Temperature Precipitation Wind Pressure Humidity
    00:00 +15°C° 0 mm 4 mps 724 mmHg 73%
    01:00 +15°C° 0 mm 4 mps 724 mmHg 76%
    02:00 +14°C° 0 mm 4 mps 724 mmHg 78%
    03:00 +14°C° 0 mm 3 mps 724 mmHg 79%
    04:00 +14°C° 0 mm 3 mps 724 mmHg 81%
    05:00 +14°C° 0 mm 3 mps 724 mmHg 82%
    06:00 +17°C° 0 mm 3 mps 724 mmHg 73%
    07:00 +18°C° 0 mm 3 mps 725 mmHg 65%
    08:00 +20°C° 0 mm 3 mps 725 mmHg 57%
    09:00 +22°C° 0 mm 4 mps 725 mmHg 48%
    10:00 +25°C° 0 mm 4 mps 725 mmHg 40%
    11:00 +27°C° 0 mm 4 mps 725 mmHg 32%
    12:00 +28°C° 0 mm 4 mps 724 mmHg 29%
    13:00 +29°C° 0 mm 4 mps 724 mmHg 26%
    14:00 +30°C° 0 mm 5 mps 723 mmHg 22%
    15:00 +29°C° 0 mm 5 mps 723 mmHg 26%
    16:00 +28°C° 0 mm 6 mps 723 mmHg 29%
    17:00 +27°C° 0 mm 6 mps 723 mmHg 32%
    18:00 +24°C° 0 mm 6 mps 723 mmHg 36%
    19:00 +23°C° 0 mm 6 mps 723 mmHg 39%
    20:00 +21°C° 0 mm 5 mps 723 mmHg 43%
    21:00 +20°C° 0 mm 5 mps 723 mmHg 46%
    22:00 +19°C° 0 mm 5 mps 722 mmHg 50%
    23:00 +17°C° 0 mm 5 mps 722 mmHg 53%

    Day after tomorrow, 1 June, Monday

    Time Temperature Precipitation Wind Pressure Humidity
    00:00 +18°C° 0 mm 4 mps 722 mmHg 56%
    01:00 +18°C° 0 mm 4 mps 722 mmHg 59%
    02:00 +17°C° 0 mm 4 mps 722 mmHg 62%
    03:00 +17°C° 0 mm 4 mps 722 mmHg 66%
    04:00 +17°C° 0 mm 3 mps 722 mmHg 70%
    05:00 +17°C° 0 mm 3 mps 722 mmHg 73%
    06:00 +19°C° 0 mm 3 mps 722 mmHg 63%
    07:00 +20°C° 0 mm 4 mps 722 mmHg 54%
    08:00 +22°C° 0 mm 4 mps 723 mmHg 44%
    09:00 +25°C° 0 mm 5 mps 723 mmHg 40%
    10:00 +26°C° 0 mm 5 mps 723 mmHg 36%
    11:00 +28°C° 0 mm 6 mps 723 mmHg 31%
    12:00 +28°C° 0 mm 6 mps 722 mmHg 30%
    13:00 +29°C° 0 mm 7 mps 722 mmHg 28%
    14:00 +30°C° 0 mm 7 mps 722 mmHg 27%
    15:00 +29°C° 0 mm 8 mps 722 mmHg 29%
    16:00 +28°C° 0 mm 8 mps 722 mmHg 32%
    17:00 +27°C° 0 mm 9 mps 721 mmHg 34%
    18:00 +24°C° 0 mm 8 mps 721 mmHg 41%
    19:00 +23°C° 0 mm 7 mps 721 mmHg 47%
    20:00 +21°C° 0 mm 5 mps 721 mmHg 54%
    21:00 +20°C° 0 mm 5 mps 721 mmHg 56%
    22:00 +20°C° 0 mm 5 mps 721 mmHg 58%
    23:00 +20°C° 0 mm 5 mps 721 mmHg 60%

    2 June, Tuesday

    Time Temperature Precipitation Wind Pressure Humidity
    00:00 +19°C° 0 mm 4 mps 720 mmHg 61%
    01:00 +19°C° 0 mm 3 mps 720 mmHg 63%
    02:00 +18°C° 0 mm 3 mps 719 mmHg 64%
    03:00 +18°C° 0 mm 2 mps 719 mmHg 65%
    04:00 +18°C° 0 mm 2 mps 719 mmHg 65%
    05:00 +19°C° 0 mm 1 mps 719 mmHg 65%
    06:00 +20°C° 0 mm 2 mps 720 mmHg 57%
    07:00 +23°C° 0 mm 2 mps 720 mmHg 49%
    08:00 +25°C° 0 mm 2 mps 721 mmHg 41%
    09:00 +26°C° 0 mm 3 mps 721 mmHg 35%
    10:00 +28°C° 0 mm 3 mps 721 mmHg 30%
    11:00 +30°C° 0 mm 4 mps 721 mmHg 24%
    12:00 +32°C° 0 mm 4 mps 720 mmHg 23%
    13:00 +33°C° 0 mm 4 mps 720 mmHg 21%
    14:00 +34°C° 0 mm 4 mps 720 mmHg 20%
    15:00 +34°C° 0 mm 3 mps 719 mmHg 20%
    16:00 +34°C° 0 mm 3 mps 719 mmHg 20%
    17:00 +34°C° 0 mm 3 mps 719 mmHg 19%
    18:00 +31°C° 0 mm 3 mps 718 mmHg 22%
    19:00 +30°C° 0 mm 3 mps 718 mmHg 24%
    20:00 +29°C° 0 mm 2 mps 718 mmHg 27%
    21:00 +28°C° 0.1 mm 2 mps 718 mmHg 28%
    22:00 +28°C° 0.1 mm 2 mps 717 mmHg 29%
    23:00 +28°C° 0.1 mm 2 mps 717 mmHg 30%

    3 June, Wednesday

    Time Temperature Precipitation Wind Pressure Humidity
    00:00 +27°C° 0 mm 3 mps 717 mmHg 31%
    01:00 +27°C° 0 mm 4 mps 717 mmHg 33%
    02:00 +26°C° 0 mm 5 mps 717 mmHg 34%
    03:00 +26°C° 0 mm 5 mps 717 mmHg 35%
    04:00 +26°C° 0 mm 5 mps 717 mmHg 36%
    05:00 +25°C° 0 mm 5 mps 717 mmHg 36%
    06:00 +27°C° 0.1 mm 5 mps 718 mmHg 32%
    07:00 +28°C° 0.1 mm 5 mps 718 mmHg 28%
    08:00 +30°C° 0.1 mm 5 mps 718 mmHg 23%
    09:00 +32°C° 0 mm 5 mps 718 mmHg 23%
    10:00 +33°C° 0 mm 5 mps 718 mmHg 23%
    11:00 +34°C° 0 mm 5 mps 718 mmHg 22%
    12:00 +33°C° 0 mm 7 mps 718 mmHg 25%
    13:00 +33°C° 0 mm 8 mps 718 mmHg 27%
    14:00 +32°C° 0 mm 10 mps 718 mmHg 30%
    15:00 +31°C° 0 mm 10 mps 718 mmHg 34%
    16:00 +28°C° 0 mm 10 mps 718 mmHg 38%
    17:00 +27°C° 0 mm 10 mps 718 mmHg 41%
    18:00 +24°C° 0 mm 10 mps 718 mmHg 48%
    19:00 +22°C° 0 mm 10 mps 719 mmHg 54%
    20:00 +19°C° 0 mm 10 mps 719 mmHg 60%
    21:00 +19°C° 0 mm 9 mps 719 mmHg 64%
    22:00 +18°C° 0 mm 9 mps 719 mmHg 69%
    23:00 +18°C° 0 mm 8 mps 719 mmHg 74%

    4 June, Thursday

    Time Temperature Precipitation Wind Pressure Humidity
    00:00 +17°C° 0 mm 7 mps 719 mmHg 75%
    01:00 +17°C° 0 mm 7 mps 719 mmHg 77%
    02:00 +17°C° 0 mm 6 mps 719 mmHg 79%
    03:00 +17°C° 0 mm 6 mps 719 mmHg 79%
    04:00 +17°C° 0 mm 5 mps 719 mmHg 80%
    05:00 +17°C° 0 mm 5 mps 719 mmHg 81%
    06:00 +19°C° 0 mm 5 mps 720 mmHg 71%
    07:00 +21°C° 0 mm 5 mps 720 mmHg 61%
    08:00 +22°C° 0 mm 6 mps 720 mmHg 52%
    09:00 +24°C° 0 mm 6 mps 721 mmHg 46%
    10:00 +26°C° 0 mm 7 mps 721 mmHg 41%
    11:00 +27°C° 0 mm 7 mps 721 mmHg 35%
    12:00 +28°C° 0 mm 8 mps 721 mmHg 34%
    13:00 +28°C° 0 mm 8 mps 721 mmHg 33%
    14:00 +28°C° 0 mm 9 mps 721 mmHg 32%
    15:00 +27°C° 0 mm 9 mps 721 mmHg 34%
    16:00 +26°C° 0 mm 8 mps 721 mmHg 35%
    17:00 +26°C° 0 mm 8 mps 721 mmHg 36%
    18:00 +23°C° 0 mm 8 mps 721 mmHg 43%
    19:00 +22°C° 0 mm 7 mps 721 mmHg 50%
    20:00 +20°C° 0 mm 6 mps 721 mmHg 57%
    21:00 +19°C° 0 mm 6 mps 722 mmHg 62%
    22:00 +19°C° 0 mm 5 mps 722 mmHg 68%
    23:00 +17°C° 0 mm 5 mps 722 mmHg 73%
    Show more